EW3286 Weather Reports


Display with metric or nautical units.
time (UTC)temp
F
wind
direction
speed
MPH
gust
MPH
rain 1hr
in
rain 24hr
in
rain mn
in
humidity
%
barometer
mb
20260905181544 86 69 0.0 0.0 0.00 0.00 0.00 49 1011.2
20260905180040 85 55 0.0 0.0 0.00 0.00 0.00 53 1010.8
20260905174537 84 63 0.0 0.0 0.00 0.00 0.00 57 1010.8
20260905173033 83 78 0.0 0.0 0.00 0.00 0.00 59 1011.1
20260905171535 81 42 0.0 0.0 0.00 0.00 0.00 63 1011.3
20260905170025 79 61 0.0 0.0 0.00 0.00 0.00 70 1011.5
20260905164524 74 61 0.0 0.0 0.00 0.00 0.00 78 1011.5
20260905163015 73 53 0.0 0.0 0.00 0.00 0.00 79 1011.7
20260905161511 71 45 0.0 0.0 0.00 0.00 0.00 82 1011.7
20260905160015 69 55 0.0 0.0 0.00 0.00 0.00 85 1011.3
20260905154502 69 25 0.0 0.0 0.00 0.00 0.00 88 1012.6
20260905153059 67 11 0.0 0.0 0.00 0.00 0.00 90 1013.4
20260905151555 0 0.0 0.0 0.00 0.00 0.00 1015.7
20260905150050 0 0.0 0.0 0.00 0.00 0.00 1016.7
20260905144546 0 0.0 0.0 0.00 0.00 0.00 1016.7
20260905143041 0 0.0 0.0 0.00 0.00 0.00 1016.4
20260905141537 0 0.0 0.0 0.00 0.00 0.00 1016.7
20260905140035 0 0.0 0.0 0.00 0.00 0.00 1016.0
20260905134541 0 0.0 0.0 0.00 0.00 0.00 1015.5
20260905133024 72 186 0.0 0.0 0.00 0.00 0.00 97 1015.2
20260905131521 71 176 0.0 0.0 0.00 0.00 0.00 97 1015.2
20260905130018 71 192 0.0 0.0 0.00 0.00 0.00 97 1014.3
20260905124520 71 223 0.0 0.0 0.00 0.00 0.00 97 1013.8
20260905123013 71 257 0.0 0.0 0.00 0.00 0.00 97 1013.7
20260905121512 71 269 0.0 0.0 0.00 0.00 0.00 97 1013.6
20260905120017 71 269 0.0 0.0 0.00 0.00 0.00 97 1012.9
20260905114505 72 272 0.0 0.0 0.00 0.00 0.00 97 1012.6
20260905113002 72 338 0.0 0.0 0.00 0.00 0.00 97 1011.7
20260905111501 72 284 0.0 0.0 0.00 0.00 0.00 97 1012.1
20260905110100 72 311 0.0 0.0 0.00 0.00 0.00 97 1011.9
20260905104559 72 333 0.0 0.0 0.00 0.00 0.00 97 1012.1
20260905103059 72 320 0.0 0.0 0.00 0.00 0.00 97 1011.9
20260905101554 72 340 0.0 0.0 0.00 0.00 0.00 97 1011.0
20260905100057 72 342 0.0 0.0 0.00 0.00 0.00 97 1011.2
20260905094552 72 333 0.0 0.0 0.00 0.00 0.00 96 1011.1
20260905093054 72 313 0.0 0.0 0.00 0.00 0.00 96 1011.1
20260905091553 72 317 0.0 0.0 0.00 0.00 0.00 96 1010.9
20260905090048 72 319 0.0 0.0 0.00 0.00 0.00 96 1011.1
20260905084546 72 347 0.0 0.0 0.00 0.00 0.00 96 1010.8
20260905083045 73 345 0.0 0.0 0.00 0.00 0.00 96 1010.1
20260905081544 73 320 0.0 0.0 0.00 0.00 0.00 96 1010.5
20260905080046 73 10 0.0 0.0 0.00 0.00 0.00 96 1010.6
20260905074539 73 313 0.0 0.0 0.00 0.00 0.00 96 1010.8
20260905073037 74 329 0.0 0.0 0.00 0.00 0.00 95 1010.9
20260905071536 74 323 0.0 0.0 0.00 0.00 0.00 95 1011.1
20260905070036 74 329 0.0 0.0 0.00 0.00 0.00 95 1011.0
20260905064532 74 320 0.0 0.0 0.00 0.00 0.00 95 1011.2
20260905063030 74 306 0.0 0.0 0.00 0.00 0.00 95 1011.2
20260905061534 74 21 0.0 0.0 0.00 0.00 0.00 95 1011.0
20260905060028 75 11 0.0 0.0 0.00 0.00 0.00 95 1011.0
20260905054526 75 325 0.0 0.0 0.00 0.00 0.00 95 1011.2
20260905053024 75 338 0.0 0.0 0.00 0.00 0.00 95 1011.1
20260905051527 75 293 0.0 0.0 0.00 0.00 0.00 95 1010.8
20260905050020 76 340 0.0 0.0 0.00 0.00 0.00 95 1010.8
20260905044519 76 355 0.0 0.0 0.00 0.00 0.00 95 1011.0
20260905043016 76 325 0.0 0.0 0.00 0.00 0.00 94 1010.9
20260905041515 77 326 0.0 0.0 0.00 0.00 0.00 94 1011.0
20260905040015 77 320 0.0 0.0 0.00 0.00 0.00 93 1011.0
20260905034518 77 341 0.0 0.0 0.00 0.00 0.00 92 1011.0
20260905033013 78 329 0.0 0.0 0.00 0.00 0.00 91 1010.7
20260905031525 78 321 0.0 0.0 0.00 0.00 0.00 90 1010.4
20260905030023 79 343 0.0 0.0 0.00 0.00 0.00 89 1010.4
20260905024509 80 349 0.0 0.0 0.00 0.00 0.00 86 1010.2
20260905023008 81 342 0.0 0.0 0.00 0.00 0.00 86 1009.9
20260905021507 81 334 0.0 0.0 0.00 0.00 0.00 85 1009.7
20260905020007 81 319 0.0 0.0 0.00 0.00 0.00 85 1009.8
20260905014508 82 311 0.0 0.0 0.00 0.00 0.00 83 1009.5
20260905013005 83 310 0.0 0.0 0.00 0.00 0.00 81 1009.7
20260905011506 84 325 0.0 0.0 0.00 0.00 0.00 80 1009.3
20260905010004 85 340 0.0 0.0 0.00 0.00 0.00 78 1009.2
20260905004506 86 339 0.0 0.0 0.00 0.00 0.00 76 1009.1
20260905003003 87 335 0.0 0.0 0.00 0.00 0.00 74 1009.1
20260905001503 88 332 0.0 0.0 0.00 0.00 0.00 71 1009.1
20260905000003 88 317 0.0 0.0 0.00 0.00 0.00 69 1009.1
20260904234502 89 10 0.0 0.0 0.00 0.00 0.00 67 1009.0
20260904233002 89 326 0.0 0.0 0.00 0.00 0.00 67 1009.1
20260904231501 90 19 0.0 0.0 0.00 0.00 0.00 65 1008.9
20260904230101 90 325 0.0 0.0 0.00 0.00 0.00 63 1008.8
20260904224600 90 26 0.0 0.0 0.00 0.00 0.00 64 1008.9
20260904223057 91 33 0.0 0.0 0.00 0.00 0.00 61 1008.6
20260904221557 91 10 0.0 0.0 0.00 0.00 0.00 61 1008.4
20260904220056 91 312 0.0 0.0 0.00 0.00 0.00 61 1008.6
20260904214552 91 27 0.0 0.0 0.00 0.00 0.00 61 1008.7
20260904213048 91 321 0.0 0.0 0.00 0.00 0.00 58 1008.7
20260904211544 92 343 0.0 0.0 0.00 0.00 0.00 62 1008.9
20260904210045 92 291 0.0 0.0 0.00 0.00 0.00 60 1008.8
20260904204540 92 326 0.0 0.0 0.00 0.00 0.00 60 1008.9
20260904203035 92 325 0.0 0.0 0.00 0.00 0.00 57 1008.9
20260904201528 92 355 0.0 0.0 0.00 0.00 0.00 59 1008.9
20260904200025 92 349 0.0 0.0 0.00 0.00 0.00 56 1009.0
20260904194519 92 303 0.0 0.0 0.00 0.00 0.00 57 1009.0
20260904193014 91 355 0.0 0.0 0.00 0.00 0.00 59 1009.0
20260904191510 91 5 0.0 0.0 0.00 0.00 0.00 59 1008.9
20260904190107 90 335 0.0 0.0 0.00 0.00 0.00 62 1008.9
20260904184505 90 284 0.0 0.0 0.00 0.00 0.00 63 1009.0
20260904183002 89 325 0.0 0.0 0.00 0.00 0.00 64 1009.0